{"data":{"norad_id":64892,"epoch":"2026-05-25T03:38:21.535296Z","epoch_age_seconds":76036,"freshness":"FRESH","line1":"1 64892U 25155S   26145.15163814  .00013945  00000+0  44390-3 0  9998","line2":"2 64892  97.4535 114.4109 0003737 260.4752  99.6068 15.32686154 77294","mean_motion":15.32686154,"eccentricity":0.0003737,"inclination_deg":97.4535,"raan_deg":114.4109,"arg_perigee_deg":260.4752,"mean_anomaly_deg":99.6068,"bstar":0.0004439,"rev_number":7729,"period_min":93.952698420475,"perigee_km":465.24357040654,"apogee_km":470.36022513874,"semimajor_km":6845.9388977726,"source":"CELESTRAK","updated_at":"2026-05-25T13:38:23.329304Z"}}